Location: The Saddle
(36.8333°N, 80.3417°W)
Time: 10:46:36
(UTC-05:00)

S-56A Canister/Altair - Pass Details

Date: 14 December 2023
Orbit: 640 x 2488 km, 38.9° (Epoch: 25 February)

Event Time Altitude Azimuth Distance (km) Brightness Sun altitude
Rises 11:29:56 0° 276° (W) 3,645 10.8 29.0°
Reaches altitude 10° 11:32:52 10° 278° (W) 2,478 10.0 29.1°
Maximum altitude 11:38:22 70° 3° (N) 742 7.7 29.3°
Drops below altitude 10° 11:42:51 10° 88° (E) 2,032 9.9 29.4°
Sets 11:45:04 0° 90° (E) 2,931 10.6 29.5°
